COSMOS 1275 DEB

Satellite information

Favourite Embed

Satellite Type and Status

DEBRISIN ORBIT

Key statistics

Satellite COSMOS 1275 DEB at a glance.

Uptime

16048

Days in orbit

Revolutions

≈ 13.7

Per day

Orbit

LEO

Low Earth Orbit

Inclination

83.0

Latest

Satellite identification and parameters

Extended collection of information and parameters for COSMOS 1275 DEB.

Object identification

Identified? True

Debris? True

Object name: COSMOS 1275 DEB

International designator: 1981-053LH

Object number (NORAD): 17638

Object ID (CCSDS): 17638

Country: COMMONWEALTH OF INDEPENDENT STATES (CIS)

Current information (Y/N): Y

RCS size: SMALL

Orbital parameters

Period: 104.915 minutes

Inclination: 82.9932 deg

SMA: 7368.618 km

Apoapsis: 1067.652 km

Periapsis: 913.315 km

RAAN: 223.4282 deg

Eccentricy: 0.0104726

Argument of periapsis: 267.7972 deg

Mean anomaly: 120.7503 deg

Mean motion: 13.72535805 rev/day

Mean motion (dot): 0.00001493 rev/day2

B* drag term: 0.0015538 1/REarth

Two-line elements (TLE)

Creation date: May 11, 2025, 10:21 p.m.

Reference frame: TEME

Reference center: EARTH

Epoch: May 11, 2025, 5:30 a.m. UTC

TLE line 0: 0 COSMOS 1275 DEB

TLE line 1: 1 17638U 81053LH 25131.22941505 .00001493 00000-0 15538-2 0 9993

TLE line 2: 2 17638 82.9932 223.4282 0104726 267.7972 120.7503 13.72535805989770

Live tracking on map

Real-time ground track for satellite COSMOS 1275 DEB.

In-orbit conjunctions

A list of the most updated potential collisions computed for object COSMOS 1275 DEB.

Target Orbit TCA Probability of collision Miss distance Type
SL-8 R/B LEO 2025-04-05 12:29:04 0.0001622453 607.0 (m) ROCKET BODY
CALSPHERE 1 SSO 2025-01-31 05:54:17 0.0001309519 998.0 (m) PAYLOAD

Associated space launch

Navigation satellite providing location information for the Tsiklon-B navigation system

COSMOS 1275 DEB was lifted into orbit during the mission ‘Kosmos-3M | Parus 27’, on board a Kosmos-3M space rocket.

The launch took place on June 4, 1981, 3:41 p.m. from 132/2.

For more information about the launch, click the button.

Launch to space Kosmos-3M | Parus 27
Kosmos-3M | Parus 27

Agency: N/A

Status: Launch Successful

Launch date: June 4, 1981, 3:41 p.m. UTC

Rocket: Kosmos-3M

Launch pad: 132/2

Location: Plesetsk Cosmodrome, Russian Federation

...

Latest news about this satellite

There are no fresh news available about this satellite. Check back as we update our databases every day.


Newsletter sign-up

Weekly statistics, charts and insights to help you stay on top of the space industry.